Satellite-Ground Cal/Val Site Overpasses Predictions

Prediction of Satellite NPP Overpassing Cal/Val Site: Antarctic Dome C

Ground Cal/Val Site Location: Latitude: -75.10, Longitude: 123.35; Satellite-Ground Site NADIR distance within 100 km.

Table of predicted overpasses for the next 14.0 days since TLE Epoch: 1/13/2024
Interval Starting Time Ending Time Minimum Distance Time Minimum Distance (km)
1 01/14/2024 07:32:04 01/14/2024 07:32:33 01/14/2024 07:32:18 3.24
2 01/17/2024 14:55:32 01/17/2024 14:56:00 01/17/2024 14:55:46 22.36
3 01/18/2024 14:36:50 01/18/2024 14:37:05 01/18/2024 14:36:58 84.67
4 01/19/2024 07:38:23 01/19/2024 07:38:50 01/19/2024 07:38:36 37.33
5 01/20/2024 07:19:37 01/20/2024 07:19:57 01/20/2024 07:19:47 72.58
6 01/22/2024 15:01:53 01/22/2024 15:02:16 01/22/2024 15:02:05 59.65
7 01/23/2024 14:43:02 01/23/2024 14:43:27 01/23/2024 14:43:15 49.58
8 01/24/2024 07:44:44 01/24/2024 07:45:04 01/24/2024 07:44:54 72.68
